Home > Weather > Kalamata > Past weeks

Flag for Greece Weather for the Past 2 Weeks in Kalamata, Greece

Now
55 °F

Partly cloudy.


Feels Like: 55 °F
Forecast: 56 / 66 °F
Wind: No wind

Location: Kalamata Airport

Current Time: Feb 12, 2016 at 5:58:17 AM

Latest Report: Feb 12, 2016 at 4:50 AM


Visibility: N/A

Pressure: 29.98 "Hg

Humidity: 88%

Dew point: 52 °F

Location of KalamataLocation

Historic Weather in Kalamata — Graph

°F

Kalamata Temperature Yesterday

Maximum temperature yesterday: 66 °F (at 12:20 PM)
Minimum temperature yesterday: 46 °F (at 7:50 AM)
Average temperature yesterday: 59 °F

High & Low Weather Summary for the Past Weeks

 TemperatureHumidityPressure
High70 °F (Feb 2, 12:50 PM)100% (Feb 10, 3:50 AM)30.42 "Hg (Feb 10, 3:50 AM)
Low34 °F (Feb 7, 7:20 AM)27% (Feb 6, 4:20 PM)29.83 "Hg (Feb 5, 3:50 AM)
Average53 °F72%30.21 "Hg
* Reported Jan 28 2:50 AM — Feb 12 2:50 AM, Kalamata, Weather by CustomWeather, © 2016

Note: Actual official high and low records may vary slightly from our data, if they occured in-between our weather recording intervals... More about our weather records

Advertising

Kalamata Weather History for the Previous 24 Hours

 ConditionsComfort  
Time TempWeatherWind HumidityBarometerVisibility
2:50 AM
Fri, Feb 12
57 °FPassing clouds.No wind88%29.98 "HgN/A
1:50 AM57 °FPartly cloudy.No wind88%30.01 "HgN/A
12:50 AM57 °FPartly cloudy.No wind82%30.01 "HgN/A
10:50 PM
Thu, Feb 11
57 °FPartly cloudy.No wind88%30.01 "HgN/A
9:50 PM55 °FLight rain. Partly cloudy.No wind94%30.01 "HgN/A
8:50 PM59 °FPassing clouds.No wind72%30.01 "HgN/A
7:50 PM57 °FPassing clouds.No wind72%30.01 "HgN/A
7:20 PM57 °FPassing clouds.No wind72%30.01 "HgN/A
6:50 PM55 °FPassing clouds.No wind77%29.98 "HgN/A
6:20 PM57 °FPassing clouds.No wind67%29.98 "HgN/A
5:50 PM59 °FScattered clouds.No wind63%29.98 "HgN/A
5:20 PM63 °FScattered clouds.5 mph52%29.95 "HgN/A
4:50 PM64 °FScattered clouds.6 mph49%29.95 "HgN/A
4:20 PM64 °FScattered clouds.5 mph46%29.95 "HgN/A
3:50 PM66 °FScattered clouds.6 mph43%29.95 "HgN/A
3:20 PM66 °FScattered clouds.9 mph43%29.95 "HgN/A
2:50 PM66 °FScattered clouds.8 mph43%29.95 "HgN/A
2:20 PM64 °FScattered clouds.8 mph49%29.95 "HgN/A
1:50 PM66 °FPassing clouds.7 mph43%29.95 "HgN/A
1:20 PM66 °FPassing clouds.No wind43%29.95 "HgN/A
12:50 PM66 °FPassing clouds.No wind43%29.95 "HgN/A
12:20 PM66 °FPassing clouds.No wind43%29.95 "HgN/A
11:50 AM64 °FPassing clouds.No wind43%29.95 "Hg6 mi
11:20 AM64 °FPassing clouds.No wind46%29.95 "Hg6 mi
10:50 AM63 °FFog.No wind52%29.95 "Hg6 mi
10:20 AM61 °FFog.No wind59%29.95 "Hg6 mi
9:50 AM59 °FFog.No wind68%29.95 "Hg6 mi
8:50 AM52 °FFog.No wind88%29.95 "Hg6 mi
8:20 AM48 °FFog.No wind94%29.92 "Hg6 mi
7:50 AM46 °FPassing clouds.No wind87%29.92 "HgN/A
7:20 AM48 °FPassing clouds.No wind87%29.92 "HgN/A
6:50 AM50 °FPassing clouds.No wind82%29.92 "HgN/A
6:20 AM54 °FPassing clouds.No wind77%29.89 "HgN/A
5:50 AM54 °FLight rain. Partly cloudy.No wind82%29.89 "Hg5 mi
5:20 AM55 °FLight rain. Partly cloudy.No wind94%29.86 "Hg5 mi
Weather by CustomWeather, © 2016

See weather overviewHow to use our weather pages